#timestamp,LO_Frequency,Hit 
1499720415.3,286047002.2,N
1499720435.1,286047001.7,N
1499720455.9,286047004.0,N
1499720475.7,286047002.0,N
1499720495.6,286047001.3,N
1499720515.4,286047003.5,N
1499720535.2,286047004.3,N
1499720555.1,286047004.4,N
1499720556.0,286047004.4,N
1499720575.8,286047002.5,N
1499720595.6,286047002.6,N
1499720615.5,286046999.7,N
1499720635.3,286047002.5,N
1499720655.2,286047001.4,N
1499720675.9,286047001.4,N
1499720695.7,286047002.3,N
1499720715.6,286047001.5,N
1499720735.4,286047002.2,N
1499720755.2,286047004.2,N
1499720775.1,286047004.4,N
1499720776.0,286047004.4,N
1499720795.8,286047001.4,N
1499720815.7,286047001.5,N
1499720835.5,286047000.2,N
1499720855.3,286047000.4,N
1499720875.2,286047000.1,N
1499720895.0,286047002.7,N
1499720895.9,286047002.7,N
1499720915.7,286047002.8,N
1499720935.6,286047000.4,N
1499720955.4,286047000.4,N
1499720975.3,286047000.0,N
1499720995.1,286047000.1,N
1499720996.0,286047000.1,N
1499721015.8,286047000.0,N
1499721035.7,286047002.7,N
1499721055.5,286046999.8,N
1499721075.3,286047000.0,N
1499721095.2,286046999.9,N
1499721115.0,286047000.1,N
1499721115.9,286047000.1,N
1499721135.8,286047002.0,N
1499721155.6,286047002.1,N
1499721175.4,286047002.1,N
1499721195.3,286047002.6,N
1499721215.1,286046999.8,N
1499721235.9,286047000.1,N
1499721255.7,286047002.6,N
1499721275.5,286047002.3,N
1499721295.4,286047000.1,N
1499721315.2,286047002.2,N
1499721335.0,286047002.6,N
1499721335.9,286047002.6,N
1499721355.8,286047001.6,N
1499721375.6,286047000.2,N
1499721395.5,286047000.3,N
1499721415.3,286047000.0,N
1499721435.1,286047002.8,N
1499721455.9,286047002.3,N
1499721475.7,286047000.9,N
1499721495.5,286047002.5,N
1499721515.4,286046999.8,N
1499721535.2,286046999.7,N
1499721555.1,286047002.1,N
1499721556.0,286047002.1,N
1499721575.8,286046999.9,N
1499721595.6,286047002.7,N
1499721615.5,286047001.0,N
1499721635.3,286046999.8,N
1499721655.1,286046999.9,N
1499721675.9,286047002.8,N
1499721695.7,286047002.5,N
1499721715.6,286046999.8,N
1499721735.4,286047002.5,N
1499721755.2,286047002.4,N
1499721775.1,286047002.6,N
1499721776.0,286047002.6,N
1499721795.8,286047002.6,N
1499721815.6,286047001.4,N
1499721835.5,286047003.5,N
1499721855.3,286047001.4,N
1499721875.2,286047002.1,N
1499721895.9,286046999.7,N
1499721915.7,286047000.3,N
1499721935.6,286047002.7,N
1499721955.4,286047001.5,N
1499721975.2,286047001.4,N
1499721995.1,286047004.1,N
1499721996.0,286047004.1,N
1499722015.8,286047001.3,N
1499722035.7,286047003.4,N
1499722055.5,286047003.7,N
1499722075.3,286047003.6,N
1499722095.2,286047003.2,N
1499722115.0,286047003.2,N
1499722115.9,286047003.2,N
1499722135.8,286047006.0,N
1499722155.6,286047003.1,N
1499722175.4,286047003.9,N
1499722195.3,286047003.2,N
1499722215.1,286047003.6,N
1499722235.9,286047003.7,N
1499722255.7,286047005.5,N
1499722275.5,286047005.6,N
1499722295.4,286047006.0,N
1499722315.2,286047005.3,N
1499722335.0,286047005.9,N
1499722335.9,286047005.9,N
1499722355.8,286047005.3,N
1499722375.6,286047002.9,N
1499722395.5,286047003.0,N
1499722415.3,286047005.3,N
1499722435.1,286047005.3,N
1499722455.9,286047006.0,N
1499722475.7,286047005.7,N
1499722495.5,286047005.8,N
1499722515.4,286047005.2,N
1499722535.2,286047005.6,N
1499722555.1,286047004.7,N
1499722556.0,286047004.7,N
1499722575.8,286047005.0,N
1499722595.6,286047004.9,N
1499722615.5,286047005.8,N
1499722635.3,286047004.8,N
1499722655.2,286047005.2,N
1499722675.9,286047005.5,N
1499722695.7,286047005.5,N
1499722715.6,286047006.0,N
1499722735.4,286047005.6,N
1499722755.2,286047003.2,N
1499722775.1,286047002.9,N
1499722776.0,286047002.9,N
1499722795.8,286047003.4,N
1499722815.7,286047002.9,N
1499722835.5,286047005.8,N
1499722855.3,286047003.0,N
1499722875.2,286047005.6,N
1499722895.0,286047002.9,N
1499722895.9,286047002.9,N
1499722915.7,286047003.0,N
1499722935.6,286047003.7,N
1499722955.4,286047003.8,N
1499722975.3,286047003.5,N
1499722995.1,286047001.4,N
1499722996.0,286047001.4,N
1499723015.8,286047003.6,N
1499723035.7,286047004.1,N
1499723055.5,286047002.9,N
1499723075.3,286047005.4,N
1499723095.2,286047002.9,N
1499723115.0,286047003.6,N
1499723115.9,286047003.6,N
1499723135.8,286047003.2,N
1499723155.6,286047003.2,N
1499723175.4,286047003.3,N
1499723195.3,286047005.7,N
1499723215.1,286047005.4,N
1499723235.9,286047002.9,N
1499723255.7,286047004.7,N
1499723275.5,286047005.7,N
1499723295.4,286047005.1,N
1499723315.2,286047005.0,N
1499723335.0,286047005.2,N
1499723336.0,286047005.2,N
1499723355.8,286047005.5,N
1499723375.6,286047005.5,N
1499723395.5,286047005.0,N
1499723415.3,286047007.2,N
1499723435.1,286047006.9,N
1499723455.9,286047007.1,N
1499723475.7,286047007.3,N
1499723495.6,286047005.3,N
1499723515.4,286047004.5,N
1499723535.2,286047005.3,N
1499723555.1,286047004.7,N
1499723556.0,286047004.7,N
1499723575.8,286047004.7,N
1499723595.7,286047007.4,N
1499723615.5,286047007.5,N
1499723635.3,286047004.6,N
1499723655.2,286047005.3,N
1499723675.9,286047003.0,N
1499723695.7,286047006.0,N
1499723715.6,286047005.5,N
1499723735.4,286047003.9,N
1499723755.2,286047003.3,N
1499723775.1,286047003.0,N
1499723776.0,286047003.0,N
1499723795.8,286047005.7,N
1499723815.7,286047006.0,N
1499723835.5,286047004.8,N
1499723855.3,286047007.4,N
1499723875.2,286047007.0,N
1499723895.0,286047006.3,N
1499723895.9,286047006.3,N
1499723915.7,286047006.9,N
1499723935.6,286047007.1,N
1499723955.4,286047004.6,N
1499723975.3,286047007.6,N
1499723995.1,286047005.1,N
1499723996.0,286047005.1,N
